Regional Weather Roundup
Issued by NWS

Home | Current Version | Previous Version | Text Only | Print | Product List | Glossary Off
Versions: 1 2 3 4 5 6 7 8 9 10 11 12 13 14 15 16 17 18 19 20 21 22 23 24 25 26 27 28 29 30 31 32 33 34 35 36 37 38 39 40 41 42 43 44 45 46 47 48 49 50

961
ASUS44 KJAN 251910
RWRMS

MISSISSIPPI HOURLY WEATHER ROUNDUP
NATIONAL WEATHER SERVICE JACKSON MS
100 PM CST TUE NOV 25 2014

NOTE: "FAIR: INDICATES FEW OR NO CLOUDS BELOW 12,000 FEET WITH NO
SIGNIFICANT WEATHER AND/OR OBSTRUCTIONS TO VISIBILITY.

MSZ001>002-007>008-010>013-018>021-025>028-034>036-252000-
NORTHWEST MISSISSIPPI

CITY           SKY/WX    TMP DP  RH WIND       PRES   REMARKS
CLARKSDALE     FAIR      46  27  46 NW7       30.22F
CLEVELAND      FAIR      48  27  43 MISG      30.22F
GREENWOOD      CLOUDY    50  24  36 N8        30.21F
GREENVILLE     CLOUDY    50  22  33 NW6       30.21F
GRENADA        FAIR      50  23  34 CALM      30.20F
OLIVE BRANCH   PTSUNNY   46  25  42 W5        30.19F
OXFORD         FAIR      46  18  31 W10       30.20F
TUNICA         MOCLDY    46  23  39 NW6       30.21F
$$

MSZ003>006-009-014>017-022>024-029>033-037>039-252000-
NORTHEAST MISSISSIPPI

CITY           SKY/WX    TMP DP  RH WIND       PRES   REMARKS
COLUMBUS AFB   CLOUDY    51  29  42 NW10      30.16F
CORINTH        FAIR      50  27  40 NW7G15    30.17S
GOLDN TRIANGLE PTSUNNY   52  30  43 NW7       30.15F
STARKVILLE     FAIR      50  32  50 W3        30.17F
TUPELO         PTSUNNY   49  27  42 N8        30.17F
$$

MSZ040-058-252000-
CENTRAL MISSISSIPPI

CITY           SKY/WX    TMP DP  RH WIND       PRES   REMARKS
JACKSON INTL   CLOUDY    52  25  35 N13       30.18F
JACKSON HAWKNS CLOUDY    52  25  35 N8        30.19F
MERIDIAN KEY   CLOUDY    57  28  33 N9        30.13F
MERIDIAN NAS   CLOUDY    57  28  33 N8        30.14F
RAYMOND        FAIR      50  46  87 NW10      30.18F
VICKSBURG      CLOUDY    52  28  39 N9        30.22F
$$

MSZ059>079-252000-
SOUTH MISSISSIPPI

CITY           SKY/WX    TMP DP  RH WIND       PRES   REMARKS
BROOKHAVEN     FAIR      52  30  43 NW9       30.17F
COLUMBIA       FAIR      55  28  35 MISG        N/A
HATTIESBURG    CLOUDY    56  33  42 NW8       30.12F
MCCOMB         CLOUDY    54  26  34 N13       30.16F
NATCHEZ        CLOUDY    52  30  43 N7        30.20F
PINE BELT      CLOUDY    55  28  35 NW8       30.12F
$$

MSZ080>082-252000-
COASTAL MISSISSIPPI

CITY           SKY/WX    TMP DP  RH WIND       PRES   REMARKS
BAY ST LOUIS   PTSUNNY   57  30  35 N12       30.11F
BILOXI         PTSUNNY   59  29  32 N10       30.08F
PASCAGOULA     PTSUNNY   61  29  29 N13G21    30.06F
GULFPORT       PTSUNNY   60  30  32 N16       30.09F
$$



USA.gov is the U.S. government's official web portal to all federal, state and local government web resources and services.